Location: Altoona
(40.5167°N, 78.4000°W)
Time: 15:22:53
(UTC-04:00)

BREEZE-M DEB (TANK) - Pass Details

Date: 21 August 2017
Orbit: 235 x 21308 km, 49.3° (Epoch: 23 September)

Event Time Altitude Azimuth Distance (km) Brightness Sun altitude
Rises 20:21:26 0° 302° (WNW) 2,121 7.4 -4.3°
Reaches altitude 10° 20:22:38 10° 304° (WNW) 1,521 6.2 -4.5°
Maximum altitude 20:25:28 84° 33° (NNE) 743 3.0 -5.0°
Drops below altitude 10° 20:36:08 10° 122° (ESE) 5,423 6.7 -6.9°
Enters shadow 20:38:29 - 123° (ESE) 6,429 7.1 -7.3°
